When you browse on this site, cookies collect data to enhance your experience and personalize the content and advertising you see.
Visit our Privacy Policy to learn more. By continuing to use the site, you agree to this use of cookies and data.
  • In Sweden
  • List of Countries
  • For 7 days
  • Water Temperature
  • Weather Map
  • Weather Widgets
  • user-avatar
    Login

    Hourly Weather Sarajevo

    Today, 10 April, Friday

    Time Temperature Precipitation Wind Pressure Humidity
    00:00 +7°C° 0 mm 1 mps 691 mmHg 66%
    01:00 +7°C° 0 mm 1 mps 690 mmHg 69%
    02:00 +7°C° 0 mm 1 mps 690 mmHg 71%
    03:00 +7°C° 0 mm 1 mps 690 mmHg 73%
    04:00 +6°C° 0 mm 1 mps 690 mmHg 75%
    05:00 +6°C° 0 mm 2 mps 690 mmHg 71%
    06:00 +8°C° 0 mm 2 mps 691 mmHg 67%
    07:00 +9°C° 0 mm 2 mps 691 mmHg 62%
    08:00 +12°C° 0 mm 2 mps 692 mmHg 54%
    09:00 +13°C° 0 mm 3 mps 692 mmHg 47%
    10:00 +16°C° 0 mm 3 mps 692 mmHg 39%
    11:00 +17°C° 0 mm 3 mps 693 mmHg 39%
    12:00 +18°C° 0 mm 3 mps 693 mmHg 38%
    13:00 +18°C° 0 mm 3 mps 693 mmHg 38%
    14:00 +18°C° 0 mm 3 mps 692 mmHg 40%
    15:00 +18°C° 0 mm 3 mps 692 mmHg 42%
    16:00 +17°C° 0 mm 3 mps 691 mmHg 44%
    17:00 +14°C° 0 mm 3 mps 691 mmHg 53%
    18:00 +12°C° 0 mm 3 mps 691 mmHg 61%
    19:00 +10°C° 0 mm 2 mps 691 mmHg 70%
    20:00 +9°C° 0 mm 2 mps 691 mmHg 73%
    21:00 +8°C° 0 mm 2 mps 691 mmHg 76%
    22:00 +9°C° 0 mm 1 mps 691 mmHg 79%
    23:00 +8°C° 0 mm 1 mps 691 mmHg 81%

    Tomorrow, 11 April, Saturday

    Time Temperature Precipitation Wind Pressure Humidity
    00:00 +8°C° 0 mm 1 mps 691 mmHg 82%
    01:00 +8°C° 0 mm 1 mps 691 mmHg 84%
    02:00 +8°C° 0 mm 1 mps 691 mmHg 82%
    03:00 +7°C° 0 mm 1 mps 691 mmHg 81%
    04:00 +7°C° 0 mm 1 mps 691 mmHg 79%
    05:00 +8°C° 0 mm 1 mps 691 mmHg 75%
    06:00 +10°C° 0 mm 1 mps 692 mmHg 72%
    07:00 +11°C° 0 mm 1 mps 692 mmHg 68%
    08:00 +12°C° 0 mm 2 mps 692 mmHg 61%
    09:00 +13°C° 0 mm 3 mps 693 mmHg 54%
    10:00 +16°C° 0 mm 3 mps 693 mmHg 48%
    11:00 +16°C° 0 mm 3 mps 693 mmHg 48%
    12:00 +16°C° 0 mm 3 mps 693 mmHg 48%
    13:00 +16°C° 0 mm 3 mps 693 mmHg 48%
    14:00 +16°C° 0 mm 3 mps 693 mmHg 48%
    15:00 +16°C° 0 mm 3 mps 692 mmHg 49%
    16:00 +14°C° 0 mm 3 mps 692 mmHg 50%
    17:00 +12°C° 0 mm 3 mps 692 mmHg 57%
    18:00 +12°C° 0 mm 2 mps 692 mmHg 65%
    19:00 +9°C° 0 mm 2 mps 691 mmHg 72%
    20:00 +8°C° 0 mm 2 mps 692 mmHg 76%
    21:00 +9°C° 0 mm 1 mps 692 mmHg 79%
    22:00 +8°C° 0 mm 1 mps 692 mmHg 83%
    23:00 +8°C° 0 mm 1 mps 692 mmHg 84%

    Day after tomorrow, 12 April, Sunday

    Time Temperature Precipitation Wind Pressure Humidity
    00:00 +7°C° 0 mm 1 mps 692 mmHg 86%
    01:00 +7°C° 0 mm 1 mps 692 mmHg 87%
    02:00 +6°C° 0 mm 1 mps 691 mmHg 88%
    03:00 +6°C° 0 mm 1 mps 691 mmHg 89%
    04:00 +6°C° 0 mm 1 mps 691 mmHg 89%
    05:00 +7°C° 0 mm 1 mps 691 mmHg 86%
    06:00 +8°C° 0 mm 1 mps 692 mmHg 82%
    07:00 +9°C° 0 mm 1 mps 692 mmHg 78%
    08:00 +12°C° 0 mm 1 mps 692 mmHg 67%
    09:00 +13°C° 0 mm 0 mps 692 mmHg 57%
    10:00 +16°C° 0 mm 0 mps 693 mmHg 46%
    11:00 +18°C° 0 mm 1 mps 692 mmHg 42%
    12:00 +19°C° 0 mm 1 mps 692 mmHg 39%
    13:00 +18°C° 0 mm 2 mps 692 mmHg 35%
    14:00 +18°C° 0 mm 2 mps 692 mmHg 37%
    15:00 +17°C° 0 mm 2 mps 691 mmHg 39%
    16:00 +17°C° 0 mm 2 mps 691 mmHg 41%
    17:00 +15°C° 0 mm 2 mps 690 mmHg 50%
    18:00 +13°C° 0 mm 1 mps 689 mmHg 60%
    19:00 +11°C° 0 mm 1 mps 689 mmHg 69%
    20:00 +10°C° 0 mm 1 mps 689 mmHg 71%
    21:00 +10°C° 0 mm 1 mps 689 mmHg 73%
    22:00 +9°C° 0 mm 1 mps 689 mmHg 76%
    23:00 +9°C° 0 mm 1 mps 689 mmHg 77%

    13 April, Monday

    Time Temperature Precipitation Wind Pressure Humidity
    00:00 +8°C° 0 mm 1 mps 689 mmHg 77%
    01:00 +8°C° 0 mm 1 mps 689 mmHg 78%
    02:00 +8°C° 0 mm 1 mps 689 mmHg 80%
    03:00 +8°C° 0 mm 1 mps 688 mmHg 81%
    04:00 +7°C° 0 mm 1 mps 688 mmHg 83%
    05:00 +8°C° 0 mm 1 mps 689 mmHg 80%
    06:00 +9°C° 0 mm 1 mps 689 mmHg 77%
    07:00 +10°C° 0 mm 1 mps 689 mmHg 75%
    08:00 +12°C° 0 mm 2 mps 689 mmHg 67%
    09:00 +13°C° 0 mm 2 mps 690 mmHg 59%
    10:00 +15°C° 0 mm 2 mps 690 mmHg 51%
    11:00 +14°C° 0 mm 3 mps 690 mmHg 51%
    12:00 +16°C° 0 mm 3 mps 689 mmHg 50%
    13:00 +15°C° 0 mm 4 mps 689 mmHg 49%
    14:00 +15°C° 0 mm 4 mps 689 mmHg 52%
    15:00 +14°C° 0 mm 4 mps 688 mmHg 54%
    16:00 +14°C° 0 mm 4 mps 688 mmHg 57%
    17:00 +12°C° 0.1 mm 3 mps 688 mmHg 66%
    18:00 +10°C° 0.1 mm 2 mps 687 mmHg 75%
    19:00 +9°C° 0.1 mm 2 mps 687 mmHg 84%
    20:00 +8°C° 0 mm 2 mps 687 mmHg 86%
    21:00 +8°C° 0 mm 2 mps 687 mmHg 88%
    22:00 +7°C° 0 mm 2 mps 687 mmHg 90%
    23:00 +7°C° 0 mm 2 mps 687 mmHg 90%

    14 April, Tuesday

    Time Temperature Precipitation Wind Pressure Humidity
    00:00 +7°C° 0 mm 2 mps 687 mmHg 89%
    01:00 +7°C° 0 mm 2 mps 687 mmHg 89%
    02:00 +6°C° 0 mm 2 mps 687 mmHg 88%
    03:00 +6°C° 0 mm 2 mps 687 mmHg 87%
    04:00 +6°C° 0 mm 2 mps 687 mmHg 87%
    05:00 +7°C° 0 mm 2 mps 687 mmHg 82%
    06:00 +8°C° 0 mm 2 mps 687 mmHg 77%
    07:00 +9°C° 0 mm 2 mps 687 mmHg 72%
    08:00 +10°C° 0 mm 2 mps 687 mmHg 66%
    09:00 +12°C° 0 mm 2 mps 688 mmHg 60%
    10:00 +14°C° 0 mm 2 mps 688 mmHg 53%
    11:00 +14°C° 0.1 mm 2 mps 688 mmHg 54%
    12:00 +14°C° 0.1 mm 2 mps 689 mmHg 54%
    13:00 +14°C° 0.1 mm 3 mps 689 mmHg 55%
    14:00 +14°C° 0.1 mm 2 mps 689 mmHg 62%
    15:00 +12°C° 0.1 mm 2 mps 688 mmHg 69%
    16:00 +10°C° 0.1 mm 2 mps 688 mmHg 76%
    17:00 +9°C° 0 mm 2 mps 688 mmHg 80%
    18:00 +9°C° 0 mm 1 mps 688 mmHg 84%
    19:00 +8°C° 0 mm 1 mps 688 mmHg 88%
    20:00 +8°C° 0 mm 1 mps 688 mmHg 89%
    21:00 +7°C° 0 mm 1 mps 688 mmHg 90%
    22:00 +7°C° 0 mm 1 mps 688 mmHg 92%
    23:00 +7°C° 0 mm 1 mps 688 mmHg 91%

    15 April, Wednesday

    Time Temperature Precipitation Wind Pressure Humidity
    00:00 +7°C° 0 mm 1 mps 688 mmHg 91%
    01:00 +6°C° 0 mm 0 mps 688 mmHg 91%
    02:00 +5°C° 0 mm 0 mps 688 mmHg 92%
    03:00 +5°C° 0 mm 0 mps 687 mmHg 92%
    04:00 +6°C° 0 mm 1 mps 687 mmHg 92%
    05:00 +7°C° 0 mm 1 mps 688 mmHg 89%
    06:00 +8°C° 0 mm 1 mps 688 mmHg 86%
    07:00 +9°C° 0 mm 1 mps 688 mmHg 83%
    08:00 +11°C° 0 mm 1 mps 688 mmHg 75%
    09:00 +13°C° 0 mm 1 mps 689 mmHg 66%
    10:00 +15°C° 0 mm 1 mps 689 mmHg 58%
    11:00 +16°C° 0 mm 1 mps 689 mmHg 55%
    12:00 +18°C° 0 mm 1 mps 689 mmHg 52%
    13:00 +18°C° 0 mm 2 mps 689 mmHg 50%
    14:00 +17°C° 0 mm 2 mps 688 mmHg 53%
    15:00 +16°C° 0 mm 1 mps 688 mmHg 56%
    16:00 +16°C° 0 mm 1 mps 688 mmHg 59%
    17:00 +14°C° 0 mm 1 mps 688 mmHg 66%
    18:00 +13°C° 0 mm 1 mps 687 mmHg 72%
    19:00 +12°C° 0 mm 1 mps 687 mmHg 79%
    20:00 +10°C° 0 mm 0 mps 687 mmHg 81%
    21:00 +9°C° 0 mm 0 mps 687 mmHg 83%
    22:00 +9°C° 0 mm 0 mps 687 mmHg 85%
    23:00 +8°C° 0 mm 0 mps 687 mmHg 86%
    Show more